Waarnemingen

Advertentie
Mijn weer
Isle Of Portland, Groot Brittannië (3857): temperatuur & dauwpunt: 05.12.2018 16:00:00 - 11.12.2018 16:00:00 (GMT)Isle Of Portland, Groot Brittannië (3857): windsnelheid & windstoten: 05.12.2018 16:00:00 - 11.12.2018 16:00:00 (GMT)Isle Of Portland, Groot Brittannië (3857): windrichting: 05.12.2018 16:00:00 - 11.12.2018 16:00:00 (GMT)Isle Of Portland, Groot Brittannië (3857): luchtdruk: 05.12.2018 16:00:00 - 11.12.2018 16:00:00 (GMT)Isle Of Portland, Groot Brittannië (3857): zicht: 05.12.2018 16:00:00 - 11.12.2018 16:00:00 (GMT)Isle Of Portland, Groot Brittannië (3857): neerslag: 05.12.2018 16:00:00 - 11.12.2018 16:00:00 (GMT)
Datum & Tijd tt [°C] td [°C] ff [km/u] ff [kn] fx [km/u] fx [kn] dd ppp [hPa] vv [km] rr [mm]
11.12.2018 16:00:00 - - - - - - - - - -
11.12.2018 15:00:00 10,2 6,7 22 12 - - Z 1022,3 19 0,0
11.12.2018 14:00:00 10,6 6,8 24 13 - - Z 1022,7 18 0,0
11.12.2018 13:00:00 10,7 7,3 26 14 - - Z 1023,3 19 0,0
11.12.2018 12:00:00 10,6 7,3 24 13 - - ZZO 1023,6 18 0,0
11.12.2018 11:00:00 10,8 7,9 24 13 - - ZZO 1024,1 16 0,0
11.12.2018 10:00:00 10,7 7,2 24 13 - - ZO 1024,6 24 0,0
11.12.2018 09:00:00 10,4 7,3 22 12 - - ZO 1024,9 22 0,0
11.12.2018 08:00:00 10,2 7,3 21 11 - - ZO 1024,9 22 0,0
11.12.2018 07:00:00 9,7 7,3 13 7 - - ZO 1025,1 17 0,0
11.12.2018 06:00:00 9,2 7,8 5 3 - - ZO 1025,2 17 0,0
11.12.2018 05:00:00 9,7 8,0 11 6 - - Z 1025,4 13 0,0
11.12.2018 04:00:00 9,7 7,5 9 5 - - ZZO 1025,9 16 0,0
11.12.2018 03:00:00 9,3 7,1 5 3 - - ZO 1026,4 14 0,0
11.12.2018 02:00:00 9,5 6,9 5 3 - - Z 1026,8 15 0,0
11.12.2018 01:00:00 9,2 6,7 8 4 - - WZW 1027,5 15 0,0
11.12.2018 00:00:00 9,4 6,6 8 4 - - W 1028,0 13 0,0
10.12.2018 23:00:00 9,5 6,7 9 5 - - W 1028,1 11 0,0
10.12.2018 22:00:00 9,6 6,3 9 5 - - W 1028,5 16 0,0
10.12.2018 21:00:00 9,9 6,1 13 7 - - W 1028,5 20 0,0
10.12.2018 20:00:00 9,4 6,4 5 3 - - WZW 1028,8 15 0,0
10.12.2018 19:00:00 9,2 6,0 5 3 - - WZW 1028,8 14 0,0
10.12.2018 18:00:00 9,4 5,8 8 4 - - NW 1029,3 20 0,0
10.12.2018 17:00:00 9,6 5,9 5 3 - - WNW 1029,2 18 0,0
10.12.2018 16:00:00 9,6 5,6 13 7 - - WNW 1029,5 22 0,0
10.12.2018 15:00:00 9,6 5,8 9 5 - - WNW 1029,3 18 0,0
10.12.2018 14:00:00 9,7 5,4 15 8 - - WNW 1029,4 21 0,0
10.12.2018 13:00:00 9,6 5,3 16 9 - - NW 1029,6 22 0,0
10.12.2018 12:00:00 9,4 5,4 18 10 - - WNW 1029,7 21 0,0
10.12.2018 11:00:00 9,5 5,3 22 12 - - NW 1029,7 16 0,0
10.12.2018 10:00:00 9,2 5,0 24 13 - - NW 1029,9 16 0,0
10.12.2018 09:00:00 8,8 5,6 18 10 - - NW 1029,4 13 0,0
10.12.2018 08:00:00 8,6 5,2 22 12 - - NW 1029,0 18 0,0
10.12.2018 07:00:00 8,7 5,3 26 14 - - NW 1028,6 18 0,0
10.12.2018 06:00:00 9,0 4,9 29 16 46 25 NW 1028,0 23 0,0
10.12.2018 05:00:00 9,1 5,5 31 17 52 28 NW 1027,8 17 0,0
10.12.2018 04:00:00 9,5 5,5 34 18 54 29 WNW 1027,2 18 0,0
10.12.2018 03:00:00 9,6 5,7 35 19 52 28 WNW 1026,9 16 0,0
10.12.2018 02:00:00 9,7 5,7 35 19 54 29 WNW 1026,4 17 0,0
10.12.2018 01:00:00 9,5 5,8 31 17 54 29 NW 1026,4 14 0,0
10.12.2018 00:00:00 9,8 5,5 39 21 54 29 NW 1025,7 17 0,0
09.12.2018 23:00:00 9,9 6,3 35 19 54 29 NW 1025,0 13 0,0
09.12.2018 22:00:00 10,0 6,6 41 22 61 33 NW 1024,5 19 0,0
09.12.2018 21:00:00 10,2 6,7 42 23 59 32 NW 1023,4 20 0,0
09.12.2018 20:00:00 10,3 7,2 42 23 54 29 WNW 1023,1 17 0,0
09.12.2018 19:00:00 10,2 6,3 35 19 57 31 NW 1022,3 18 0,0
09.12.2018 18:00:00 10,4 6,1 41 22 61 33 NW 1021,1 15 0,0
09.12.2018 17:00:00 10,7 6,6 42 23 59 32 WNW 1020,4 15 0,0
09.12.2018 16:00:00 10,9 6,6 44 24 67 36 WNW 1019,0 15 0,0
09.12.2018 15:00:00 11,2 5,9 46 25 67 36 NW 1017,6 22 0,0
09.12.2018 14:00:00 11,1 6,9 39 21 63 34 NW 1016,1 15 0,0
09.12.2018 13:00:00 10,7 7,5 48 26 68 37 WNW 1014,3 22 0,0
09.12.2018 12:00:00 11,2 8,0 41 22 67 36 NW 1013,4 11 0,0
09.12.2018 11:00:00 11,2 7,4 52 28 76 41 WNW 1011,4 12 0,0
09.12.2018 10:00:00 10,9 7,2 59 32 83 45 WNW 1009,9 13 0,0
09.12.2018 09:00:00 11,2 7,3 67 36 93 50 WNW 1008,5 11 0,0
09.12.2018 08:00:00 11,1 7,6 68 37 89 48 W 1007,1 11 0,0
09.12.2018 07:00:00 11,1 7,9 67 36 96 52 W 1006,1 8 0,0
09.12.2018 06:00:00 11,1 7,7 63 34 87 47 W 1005,7 8 0,0
09.12.2018 05:00:00 11,3 7,0 59 32 87 47 W 1005,0 9 0,0
09.12.2018 04:00:00 10,8 7,4 61 33 87 47 W 1004,9 9 0,0
09.12.2018 03:00:00 10,1 7,1 67 36 94 51 W 1004,6 10 0,2
09.12.2018 02:00:00 10,4 6,5 74 40 98 53 W 1004,3 9 0,0
09.12.2018 01:00:00 10,8 6,4 74 40 100 54 W 1004,1 9 0,0
09.12.2018 00:00:00 10,7 6,2 59 32 85 46 W 1004,3 9 0,0
08.12.2018 23:00:00 10,2 6,3 59 32 131 71 W 1004,1 11 1,2
08.12.2018 22:00:00 9,1 7,2 68 37 109 59 W 1003,9 7 0,6
08.12.2018 21:00:00 11,1 6,7 55 30 85 46 W 1003,4 9 0,0
08.12.2018 20:00:00 11,4 6,6 63 34 91 49 W 1003,4 9 0,0
08.12.2018 19:00:00 11,1 7,6 68 37 98 53 W 1003,0 9 0,2
08.12.2018 18:00:00 12,0 7,0 68 37 94 51 W 1002,7 6 0,0
08.12.2018 17:00:00 11,6 9,1 50 27 74 40 W 1003,3 8 0,0
08.12.2018 16:00:00 11,8 10,2 52 28 76 41 W 1003,3 9 1,8
08.12.2018 15:00:00 12,6 10,6 52 28 87 47 W 1003,3 8 0,0
08.12.2018 14:00:00 12,6 11,2 59 32 81 44 WZW 1004,4 8 0,0
08.12.2018 13:00:00 12,0 11,3 59 32 83 45 WZW 1005,7 7 0,0
08.12.2018 12:00:00 11,9 10,7 59 32 80 43 WZW 1007,0 10 0,0
08.12.2018 11:00:00 11,6 10,1 55 30 72 39 W 1008,6 10 0,0
08.12.2018 10:00:00 11,3 8,5 54 29 78 42 W 1009,1 8 0,0
08.12.2018 09:00:00 11,0 7,6 63 34 81 44 W 1009,5 8 0,0
08.12.2018 08:00:00 11,1 7,0 63 34 94 51 W 1009,3 7 0,0
08.12.2018 07:00:00 11,1 6,8 65 35 85 46 W 1009,5 10 0,0
08.12.2018 06:00:00 10,9 6,6 61 33 85 46 W 1009,1 8 0,0
08.12.2018 05:00:00 10,7 6,8 63 34 83 45 W 1008,7 9 0,0
08.12.2018 04:00:00 10,5 6,6 59 32 85 46 W 1008,7 10 0,0
08.12.2018 03:00:00 10,6 6,4 65 35 87 47 W 1008,9 11 0,0
08.12.2018 02:00:00 10,4 6,2 63 34 91 49 W 1008,6 11 0,0
08.12.2018 01:00:00 10,2 6,8 61 33 89 48 W 1008,4 11 0,0
08.12.2018 00:00:00 10,1 6,8 67 36 85 46 W 1008,6 11 0,0
07.12.2018 23:00:00 10,1 6,1 61 33 85 46 W 1009,0 12 0,0
07.12.2018 22:00:00 10,2 5,2 65 35 91 49 W 1008,9 13 0,0
07.12.2018 21:00:00 9,8 5,6 63 34 83 45 W 1008,5 11 0,0
07.12.2018 20:00:00 9,6 5,2 55 30 78 42 W 1008,7 11 0,0
07.12.2018 19:00:00 9,7 4,8 61 33 89 48 W 1008,2 14 0,2
07.12.2018 18:00:00 9,5 5,0 63 34 83 45 W 1007,7 11 0,0
07.12.2018 17:00:00 8,5 5,3 61 33 80 43 W 1007,1 5 0,0
07.12.2018 16:00:00 9,7 5,0 54 29 78 42 W 1006,3 13 0,0
07.12.2018 15:00:00 9,5 4,3 55 30 78 42 W 1005,6 15 0,0
07.12.2018 14:00:00 8,5 5,4 63 34 102 55 WNW 1005,2 14 0,2
07.12.2018 13:00:00 10,3 4,4 63 34 83 45 WNW 1003,7 16 0,0
07.12.2018 12:00:00 10,5 4,5 67 36 81 44 WNW 1003,4 17 0,0
07.12.2018 11:00:00 10,8 6,2 52 28 76 41 W 1003,5 11 0,0
07.12.2018 10:00:00 11,0 7,1 57 31 74 40 W 1002,3 11 0,4
07.12.2018 09:00:00 10,2 9,0 52 28 89 48 WNW 1002,1 9 3,0
07.12.2018 08:00:00 12,2 11,9 55 30 72 39 ZW 1002,1 1,9 2,0
07.12.2018 07:00:00 12,0 11,7 57 31 78 42 ZW 1003,5 2,6 2,8
07.12.2018 06:00:00 12,1 11,8 55 30 80 43 ZW 1004,9 3,0 1,0
07.12.2018 05:00:00 12,2 11,9 55 30 76 41 ZW 1006,4 2,4 0,4
07.12.2018 04:00:00 12,5 11,8 46 25 76 41 ZW 1008,1 4,9 0,0
07.12.2018 03:00:00 12,5 12,1 55 30 81 44 ZW 1009,4 7 0,0
07.12.2018 02:00:00 12,3 12,3 52 28 65 35 ZW 1010,6 2,6 0,2
07.12.2018 01:00:00 12,3 12,2 50 27 63 34 WZW 1011,5 2,1 0,0
07.12.2018 00:00:00 12,5 12,3 42 23 57 31 WZW 1012,7 7 0,0
06.12.2018 23:00:00 12,5 12,3 44 24 55 30 WZW 1013,4 2,4 0,0
06.12.2018 22:00:00 12,5 12,4 46 25 61 33 WZW 1014,0 5 0,0
06.12.2018 21:00:00 12,5 12,3 46 25 57 31 WZW 1014,5 5 0,0
06.12.2018 20:00:00 12,4 12,2 39 21 57 31 WZW 1015,0 6 0,2
06.12.2018 19:00:00 12,3 12,2 42 23 55 30 WZW 1015,5 4,2 0,4
06.12.2018 18:00:00 12,4 12,1 42 23 55 30 WZW 1015,8 5 0,2
06.12.2018 17:00:00 12,2 12,0 34 18 - - WZW 1015,8 4,7 0,4
06.12.2018 16:00:00 12,2 11,8 34 18 46 25 WZW 1015,9 3,6 0,2
06.12.2018 15:00:00 12,2 11,5 37 20 50 27 WZW 1016,3 2,9 0,0
06.12.2018 14:00:00 12,3 11,3 41 22 55 30 WZW 1016,2 6 0,0
06.12.2018 13:00:00 12,2 11,4 41 22 55 30 WZW 1016,6 5 0,0
06.12.2018 12:00:00 12,3 11,2 39 21 52 28 WZW 1017,2 5 0,0
06.12.2018 11:00:00 12,2 11,0 41 22 48 26 WZW 1017,0 12 0,0
06.12.2018 10:00:00 12,0 11,2 37 20 54 29 W 1016,6 12 0,2
06.12.2018 09:00:00 11,9 11,3 34 18 46 25 W 1016,5 11 0,0
06.12.2018 08:00:00 11,7 11,0 31 17 46 25 W 1016,2 10 0,0
06.12.2018 07:00:00 11,8 11,0 34 18 - - WZW 1015,7 17 0,0
06.12.2018 06:00:00 11,7 11,2 26 14 - - W 1015,3 11 0,0
06.12.2018 05:00:00 11,8 11,1 24 13 - - W 1015,2 8 0,0
06.12.2018 04:00:00 12,0 11,4 24 13 - - W 1014,7 11 0,0
06.12.2018 03:00:00 12,1 11,1 26 14 - - W 1014,5 14 0,0
06.12.2018 02:00:00 12,0 11,7 21 11 - - W 1014,1 11 0,0
06.12.2018 01:00:00 11,9 11,6 26 14 - - WZW 1013,4 8 0,0
06.12.2018 00:00:00 11,8 11,5 22 12 - - WZW 1012,7 6 0,0
05.12.2018 23:00:00 11,9 11,6 22 12 - - W 1012,3 6 0,0
05.12.2018 22:00:00 12,1 11,7 16 9 - - W 1011,9 8 0,0
05.12.2018 21:00:00 12,3 12,0 21 11 - - W 1011,9 5 0,0
05.12.2018 20:00:00 12,3 12,0 29 16 - - W 1011,2 5 0,0
05.12.2018 19:00:00 12,2 11,9 29 16 - - WZW 1010,4 5 0,0
05.12.2018 18:00:00 12,4 12,2 28 15 - - W 1009,9 4,5 0,0
05.12.2018 17:00:00 12,4 12,3 29 16 - - WZW 1009,4 4,1 0,8
05.12.2018 16:00:00 12,5 12,3 34 18 46 25 ZW 1009,7 2,1 0,6

tt = temperatuur
td = dauwpunt
ff = windsnelheid
fx = windstoten
dd = windrichting
ppp = luchtdruk
vv = zicht
rr = neerslag

Weerstations in de omgeving